Вернуться в каталог

CZ-6A DEB

АктивенPO
NORAD 60690·DEBRIS·🇨🇳 China

Запущен Aug 6, 2024 с Taiyuan Satellite Launch Center

Loading…

Ближайшие Пролёты (ближайшие 24 часа)

TLE

СвежийSource: Space-Track

Эпоха: Sep 14, 2026, 17:44 UTC

1 60690U 24140CT  26257.73900586  .00000147  00000-0  68014-4 0  9997
2 60690  89.0080 266.4560 0063265 265.4314  93.9645 14.14879420108368

Отслеживайте CZ-6A DEB в реальном времени с AllMySat

Download on the App Store